Time,TemperatureF,DewpointF,PressureIn,WindDirection,WindDirectionDegrees,WindSpeedMPH,WindSpeedGustMPH,Humidity,HourlyPrecipIn,Conditions,Clouds,dailyrainin,SoftwareType,DateUTC
2013-04-02 00:02:00,24.2,16.5,30.30,West,264,2.0,6.0,72,0.00,,,0.00,VWS V14.01,2013-04-02 05:02:00,
2013-04-02 00:07:00,24.0,16.3,30.30,West,264,0.0,6.0,72,0.00,,,0.00,VWS V14.01,2013-04-02 05:07:00,
2013-04-02 00:13:00,23.9,16.2,30.30,West,270,1.0,6.0,72,0.00,,,0.00,VWS V14.01,2013-04-02 05:13:00,
2013-04-02 00:18:00,23.9,16.5,30.30,West,259,0.0,6.0,73,0.00,,,0.00,VWS V14.01,2013-04-02 05:18:00,
2013-04-02 00:23:00,23.8,16.4,30.30,WSW,256,4.0,6.0,73,0.00,,,0.00,VWS V14.01,2013-04-02 05:23:00,
2013-04-02 00:28:00,23.8,16.4,30.30,WSW,256,0.0,6.0,73,0.00,,,0.00,VWS V14.01,2013-04-02 05:28:00,
2013-04-02 00:33:00,23.7,16.6,30.30,WSW,251,3.0,4.0,74,0.00,,,0.00,VWS V14.01,2013-04-02 05:33:00,
2013-04-02 00:38:00,23.6,16.5,30.30,West,261,3.0,8.0,74,0.00,,,0.00,VWS V14.01,2013-04-02 05:38:00,
2013-04-02 00:43:00,23.5,16.5,30.30,West,263,0.0,8.0,74,0.00,,,0.00,VWS V14.01,2013-04-02 05:43:00,
2013-04-02 00:48:00,23.5,16.5,30.31,West,266,0.0,8.0,74,0.00,,,0.00,VWS V14.01,2013-04-02 05:48:00,
2013-04-02 00:53:00,23.4,16.7,30.31,West,270,0.0,8.0,75,0.00,,,0.00,VWS V14.01,2013-04-02 05:53:00,
2013-04-02 00:58:00,23.3,16.6,30.31,West,271,2.0,8.0,75,0.00,,,0.00,VWS V14.01,2013-04-02 05:58:00,
2013-04-02 01:03:00,23.2,16.5,30.31,WNW,287,5.0,6.0,75,0.00,,,0.00,VWS V14.01,2013-04-02 06:03:00,
2013-04-02 01:08:00,23.1,16.4,30.31,WNW,283,1.0,6.0,75,0.00,,,0.00,VWS V14.01,2013-04-02 06:08:00,
2013-04-02 01:13:00,23.0,16.3,30.31,West,259,0.0,7.0,75,0.00,,,0.00,VWS V14.01,2013-04-02 06:13:00,
2013-04-02 01:18:00,22.9,16.2,30.31,West,263,1.0,7.0,75,0.00,,,0.00,VWS V14.01,2013-04-02 06:18:00,
2013-04-02 01:24:00,22.8,16.1,30.31,West,271,0.0,7.0,75,0.00,,,0.00,VWS V14.01,2013-04-02 06:24:00,
2013-04-02 01:29:00,22.8,16.1,30.31,West,275,0.0,7.0,75,0.00,,,0.00,VWS V14.01,2013-04-02 06:29:00,
2013-04-02 01:34:00,22.7,16.0,30.31,West,271,0.0,5.0,75,0.00,,,0.00,VWS V14.01,2013-04-02 06:34:00,
2013-04-02 01:39:00,22.7,16.3,30.30,West,268,2.0,5.0,76,0.00,,,0.00,VWS V14.01,2013-04-02 06:39:00,
2013-04-02 01:44:00,22.7,16.0,30.31,West,268,1.0,5.0,75,0.00,,,0.00,VWS V14.01,2013-04-02 06:44:00,
2013-04-02 01:49:00,22.7,16.0,30.31,West,268,0.0,5.0,75,0.00,,,0.00,VWS V14.01,2013-04-02 06:49:00,
2013-04-02 01:54:00,22.6,15.9,30.31,West,276,0.0,7.0,75,0.00,,,0.00,VWS V14.01,2013-04-02 06:54:00,
2013-04-02 01:59:00,22.6,15.9,30.31,West,276,0.0,7.0,75,0.00,,,0.00,VWS V14.01,2013-04-02 06:59:00,
2013-04-02 02:04:00,22.5,15.8,30.31,WNW,282,0.0,5.0,75,0.00,,,0.00,VWS V14.01,2013-04-02 07:04:00,
2013-04-02 02:09:00,22.6,15.9,30.31,West,281,0.0,5.0,75,0.00,,,0.00,VWS V14.01,2013-04-02 07:09:00,
2013-04-02 02:14:00,22.6,15.9,30.31,West,281,0.0,5.0,75,0.00,,,0.00,VWS V14.01,2013-04-02 07:14:00,
2013-04-02 02:19:00,22.5,15.8,30.31,WNW,282,0.0,5.0,75,0.00,,,0.00,VWS V14.01,2013-04-02 07:19:00,
2013-04-02 02:24:00,22.5,15.8,30.31,West,281,0.0,5.0,75,0.00,,,0.00,VWS V14.01,2013-04-02 07:24:00,
2013-04-02 02:29:00,22.5,15.8,30.31,West,281,0.0,5.0,75,0.00,,,0.00,VWS V14.01,2013-04-02 07:29:00,
2013-04-02 02:34:00,22.5,15.8,30.31,West,281,0.0,0.0,75,0.00,,,0.00,VWS V14.01,2013-04-02 07:34:00,
2013-04-02 02:39:00,22.5,15.8,30.31,West,281,3.0,4.0,75,0.00,,,0.00,VWS V14.01,2013-04-02 07:39:00,
2013-04-02 02:44:00,22.5,15.8,30.31,West,281,0.0,4.0,75,0.00,,,0.00,VWS V14.01,2013-04-02 07:44:00,
2013-04-02 02:49:00,22.5,15.8,30.31,West,281,0.0,4.0,75,0.00,,,0.00,VWS V14.01,2013-04-02 07:49:00,
2013-04-02 02:54:00,22.5,15.8,30.31,West,281,0.0,4.0,75,0.00,,,0.00,VWS V14.01,2013-04-02 07:54:00,
2013-04-02 02:59:00,22.5,15.8,30.31,West,281,0.0,4.0,75,0.00,,,0.00,VWS V14.01,2013-04-02 07:59:00,
2013-04-02 03:05:00,22.5,15.8,30.31,West,281,0.0,0.0,75,0.00,,,0.00,VWS V14.01,2013-04-02 08:05:00,
2013-04-02 03:10:00,22.4,16.0,30.31,West,281,0.0,0.0,76,0.00,,,0.00,VWS V14.01,2013-04-02 08:10:00,
2013-04-02 03:15:00,22.4,16.0,30.31,West,281,0.0,3.0,76,0.00,,,0.00,VWS V14.01,2013-04-02 08:15:00,
2013-04-02 03:20:00,22.3,15.9,30.31,West,281,0.0,3.0,76,0.00,,,0.00,VWS V14.01,2013-04-02 08:20:00,
2013-04-02 03:25:00,22.4,16.0,30.31,West,281,0.0,3.0,76,0.00,,,0.00,VWS V14.01,2013-04-02 08:25:00,
2013-04-02 03:30:00,22.3,15.9,30.30,West,281,0.0,3.0,76,0.00,,,0.00,VWS V14.01,2013-04-02 08:30:00,
2013-04-02 03:35:00,22.2,15.8,30.31,West,281,0.0,2.0,76,0.00,,,0.00,VWS V14.01,2013-04-02 08:35:00,
2013-04-02 03:40:00,22.0,15.9,30.30,West,281,0.0,2.0,77,0.00,,,0.00,VWS V14.01,2013-04-02 08:40:00,
2013-04-02 03:45:00,21.9,15.8,30.30,West,281,0.0,2.0,77,0.00,,,0.00,VWS V14.01,2013-04-02 08:45:00,
2013-04-02 03:50:00,21.8,15.7,30.30,West,281,0.0,3.0,77,0.00,,,0.00,VWS V14.01,2013-04-02 08:50:00,
2013-04-02 03:55:00,21.8,15.7,30.30,West,281,0.0,3.0,77,0.00,,,0.00,VWS V14.01,2013-04-02 08:55:00,
2013-04-02 04:00:00,21.7,15.6,30.30,West,281,0.0,3.0,77,0.00,,,0.00,VWS V14.01,2013-04-02 09:00:00,
2013-04-02 04:05:00,21.7,15.6,30.30,West,281,0.0,3.0,77,0.00,,,0.00,VWS V14.01,2013-04-02 09:05:00,
2013-04-02 04:10:00,21.6,15.5,30.30,WNW,283,0.0,6.0,77,0.00,,,0.00,VWS V14.01,2013-04-02 09:10:00,
2013-04-02 04:15:00,21.6,15.8,30.30,WNW,283,0.0,6.0,78,0.00,,,0.00,VWS V14.01,2013-04-02 09:15:00,
2013-04-02 04:20:00,21.6,15.8,30.30,West,280,0.0,6.0,78,0.00,,,0.00,VWS V14.01,2013-04-02 09:20:00,
2013-04-02 04:25:00,21.5,15.7,30.30,West,278,3.0,6.0,78,0.00,,,0.00,VWS V14.01,2013-04-02 09:25:00,
2013-04-02 04:30:00,21.4,15.6,30.30,West,278,1.0,6.0,78,0.00,,,0.00,VWS V14.01,2013-04-02 09:30:00,
2013-04-02 04:35:00,21.4,15.6,30.30,West,278,0.0,0.0,78,0.00,,,0.00,VWS V14.01,2013-04-02 09:35:00,
2013-04-02 04:40:00,21.3,15.5,30.30,West,278,0.0,3.0,78,0.00,,,0.00,VWS V14.01,2013-04-02 09:40:00,
2013-04-02 04:45:00,21.3,15.5,30.31,West,278,0.0,3.0,78,0.00,,,0.00,VWS V14.01,2013-04-02 09:45:00,
2013-04-02 04:51:00,21.2,15.4,30.31,West,278,0.0,3.0,78,0.00,,,0.00,VWS V14.01,2013-04-02 09:51:00,
2013-04-02 04:56:00,21.1,15.6,30.31,West,278,0.0,4.0,79,0.00,,,0.00,VWS V14.01,2013-04-02 09:56:00,
2013-04-02 05:02:00,21.1,15.3,30.31,West,278,0.0,0.0,78,0.00,,,0.00,VWS V14.01,2013-04-02 10:02:00,
2013-04-02 05:08:00,21.1,15.6,30.31,West,278,0.0,2.0,79,0.00,,,0.00,VWS V14.01,2013-04-02 10:08:00,
2013-04-02 05:13:00,21.1,15.6,30.31,West,278,0.0,2.0,79,0.00,,,0.00,VWS V14.01,2013-04-02 10:13:00,
2013-04-02 05:18:00,21.1,15.6,30.31,West,278,0.0,2.0,79,0.00,,,0.00,VWS V14.01,2013-04-02 10:18:00,
2013-04-02 05:23:00,21.1,15.6,30.31,West,278,0.0,2.0,79,0.00,,,0.00,VWS V14.01,2013-04-02 10:23:00,
2013-04-02 05:28:00,21.1,15.6,30.32,West,278,0.0,2.0,79,0.00,,,0.00,VWS V14.01,2013-04-02 10:28:00,
2013-04-02 05:33:00,21.1,15.6,30.32,West,278,0.0,0.0,79,0.00,,,0.00,VWS V14.01,2013-04-02 10:33:00,
2013-04-02 05:39:00,21.0,15.5,30.32,West,278,0.0,0.0,79,0.00,,,0.00,VWS V14.01,2013-04-02 10:39:00,
2013-04-02 05:44:00,21.0,15.5,30.32,West,278,0.0,2.0,79,0.00,,,0.00,VWS V14.01,2013-04-02 10:44:00,
2013-04-02 05:49:00,21.0,15.5,30.32,West,278,0.0,2.0,79,0.00,,,0.00,VWS V14.01,2013-04-02 10:49:00,
2013-04-02 05:54:00,21.1,15.6,30.32,West,278,0.0,2.0,79,0.00,,,0.00,VWS V14.01,2013-04-02 10:54:00,
2013-04-02 05:59:00,21.0,15.2,30.32,West,278,0.0,2.0,78,0.00,,,0.00,VWS V14.01,2013-04-02 10:59:00,
2013-04-02 06:04:00,20.9,15.1,30.32,West,278,0.0,0.0,78,0.00,,,0.00,VWS V14.01,2013-04-02 11:04:00,
2013-04-02 06:09:00,20.9,15.4,30.32,West,278,0.0,0.0,79,0.00,,,0.00,VWS V14.01,2013-04-02 11:09:00,
2013-04-02 06:14:00,20.8,15.0,30.32,West,278,0.0,0.0,78,0.00,,,0.00,VWS V14.01,2013-04-02 11:14:00,
2013-04-02 06:19:00,20.7,15.2,30.32,West,278,0.0,4.0,79,0.00,,,0.00,VWS V14.01,2013-04-02 11:19:00,
2013-04-02 06:24:00,20.6,15.1,30.32,WNW,283,0.0,4.0,79,0.00,,,0.00,VWS V14.01,2013-04-02 11:24:00,
2013-04-02 06:29:00,20.5,14.7,30.32,WNW,284,0.0,4.0,78,0.00,,,0.00,VWS V14.01,2013-04-02 11:29:00,
2013-04-02 06:34:00,20.5,14.7,30.32,WNW,283,2.0,3.0,78,0.00,,,0.00,VWS V14.01,2013-04-02 11:34:00,
2013-04-02 06:39:00,20.4,14.6,30.32,WNW,284,4.0,4.0,78,0.00,,,0.00,VWS V14.01,2013-04-02 11:39:00,
2013-04-02 06:44:00,20.3,14.6,30.32,WNW,283,0.0,5.0,78,0.00,,,0.00,VWS V14.01,2013-04-02 11:44:00,
2013-04-02 06:49:00,20.3,14.6,30.33,WNW,284,0.0,5.0,78,0.00,,,0.00,VWS V14.01,2013-04-02 11:49:00,
2013-04-02 06:54:00,20.3,14.6,30.33,WNW,283,0.0,5.0,78,0.00,,,0.00,VWS V14.01,2013-04-02 11:54:00,
2013-04-02 06:59:00,20.3,14.6,30.33,WNW,284,0.0,5.0,78,0.00,,,0.00,VWS V14.01,2013-04-02 11:59:00,
2013-04-02 07:04:00,20.2,14.4,30.33,WNW,284,0.0,3.0,78,0.00,,,0.00,VWS V14.01,2013-04-02 12:04:00,
2013-04-02 07:09:00,20.2,14.4,30.34,WNW,284,1.0,3.0,78,0.00,,,0.00,VWS V14.01,2013-04-02 12:09:00,
2013-04-02 07:14:00,20.2,14.4,30.34,WNW,283,0.0,4.0,78,0.00,,,0.00,VWS V14.01,2013-04-02 12:14:00,
2013-04-02 07:20:00,20.3,14.6,30.34,WNW,284,0.0,4.0,78,0.00,,,0.00,VWS V14.01,2013-04-02 12:20:00,
2013-04-02 07:25:00,20.3,14.6,30.34,WNW,283,0.0,4.0,78,0.00,,,0.00,VWS V14.01,2013-04-02 12:25:00,
2013-04-02 07:30:00,20.4,14.6,30.34,WNW,283,0.0,4.0,78,0.00,,,0.00,VWS V14.01,2013-04-02 12:30:00,
2013-04-02 07:35:00,20.6,14.8,30.34,West,269,5.0,5.0,78,0.00,,,0.00,VWS V14.01,2013-04-02 12:35:00,
2013-04-02 07:40:00,20.8,15.0,30.34,West,262,0.0,6.0,78,0.00,,,0.00,VWS V14.01,2013-04-02 12:40:00,
2013-04-02 07:45:00,21.3,15.5,30.35,West,270,0.0,6.0,78,0.00,,,0.00,VWS V14.01,2013-04-02 12:45:00,
2013-04-02 07:50:00,22.0,15.9,30.35,West,270,2.0,6.0,77,0.00,,,0.00,VWS V14.01,2013-04-02 12:50:00,
2013-04-02 07:55:00,23.0,16.6,30.35,West,269,0.0,6.0,76,0.00,,,0.00,VWS V14.01,2013-04-02 12:55:00,
2013-04-02 08:00:00,24.0,16.6,30.35,West,278,2.0,6.0,73,0.00,,,0.00,VWS V14.01,2013-04-02 13:00:00,
2013-04-02 08:05:00,24.8,17.1,30.36,West,276,0.0,5.0,72,0.00,,,0.00,VWS V14.01,2013-04-02 13:05:00,
2013-04-02 08:10:00,25.5,17.1,30.36,West,263,0.0,7.0,70,0.00,,,0.00,VWS V14.01,2013-04-02 13:10:00,
2013-04-02 08:15:00,26.1,17.0,30.36,West,264,0.0,8.0,68,0.00,,,0.00,VWS V14.01,2013-04-02 13:15:00,
2013-04-02 08:20:00,26.7,17.2,30.36,West,270,2.0,8.0,67,0.00,,,0.00,VWS V14.01,2013-04-02 13:20:00,
2013-04-02 08:25:00,27.2,17.0,30.36,West,277,2.0,9.0,65,0.00,,,0.00,VWS V14.01,2013-04-02 13:25:00,
2013-04-02 08:30:00,27.6,17.7,30.36,West,275,1.0,9.0,66,0.00,,,0.00,VWS V14.01,2013-04-02 13:30:00,
2013-04-02 08:35:00,28.3,17.7,30.36,West,272,0.0,7.0,64,0.00,,,0.00,VWS V14.01,2013-04-02 13:35:00,
2013-04-02 08:40:00,29.0,18.4,30.36,West,274,0.0,7.0,64,0.00,,,0.00,VWS V14.01,2013-04-02 13:40:00,
2013-04-02 08:45:00,29.6,17.8,30.36,WNW,290,0.0,8.0,61,0.00,,,0.00,VWS V14.01,2013-04-02 13:45:00,
2013-04-02 08:50:00,29.7,17.5,30.36,West,264,0.0,8.0,60,0.00,,,0.00,VWS V14.01,2013-04-02 13:50:00,
2013-04-02 08:55:00,29.8,17.6,30.37,WNW,291,3.0,8.0,60,0.00,,,0.00,VWS V14.01,2013-04-02 13:55:00,
2013-04-02 09:01:00,30.0,17.8,30.37,WNW,289,4.0,8.0,60,0.00,,,0.00,VWS V14.01,2013-04-02 14:01:00,
2013-04-02 09:06:00,30.4,17.8,30.37,WSW,258,0.0,9.0,59,0.00,,,0.00,VWS V14.01,2013-04-02 14:06:00,
2013-04-02 09:12:00,30.6,18.0,30.37,NNW,343,0.0,9.0,59,0.00,,,0.00,VWS V14.01,2013-04-02 14:12:00,
2013-04-02 09:17:00,30.7,17.7,30.36,NW,322,0.0,9.0,58,0.00,,,0.00,VWS V14.01,2013-04-02 14:17:00,
2013-04-02 09:22:00,31.0,18.0,30.37,WNW,288,2.0,9.0,58,0.00,,,0.00,VWS V14.01,2013-04-02 14:22:00,
2013-04-02 09:27:00,31.4,17.9,30.37,West,276,4.0,9.0,57,0.00,,,0.00,VWS V14.01,2013-04-02 14:27:00,
2013-04-02 09:32:00,32.0,18.1,30.36,West,269,3.0,6.0,56,0.00,,,0.00,VWS V14.01,2013-04-02 14:32:00,
2013-04-02 09:37:00,32.0,17.7,30.36,WSW,253,3.0,7.0,55,0.00,,,0.00,VWS V14.01,2013-04-02 14:37:00,
2013-04-02 09:42:00,32.0,17.7,30.36,WSW,258,3.0,9.0,55,0.00,,,0.00,VWS V14.01,2013-04-02 14:42:00,
2013-04-02 09:47:00,32.1,17.3,30.36,West,275,1.0,9.0,54,0.00,,,0.00,VWS V14.01,2013-04-02 14:47:00,
2013-04-02 09:52:00,32.1,17.3,30.36,WNW,294,3.0,9.0,54,0.00,,,0.00,VWS V14.01,2013-04-02 14:52:00,
2013-04-02 09:57:00,32.1,17.8,30.37,WNW,283,2.0,9.0,55,0.00,,,0.00,VWS V14.01,2013-04-02 14:57:00,
2013-04-02 10:02:00,32.1,17.3,30.37,WNW,285,0.0,5.0,54,0.00,,,0.00,VWS V14.01,2013-04-02 15:02:00,
2013-04-02 10:07:00,32.3,17.1,30.37,WNW,291,1.0,9.0,53,0.00,,,0.00,VWS V14.01,2013-04-02 15:07:00,
2013-04-02 10:12:00,32.6,16.9,30.37,WNW,283,3.0,9.0,52,0.00,,,0.00,VWS V14.01,2013-04-02 15:12:00,
2013-04-02 10:17:00,32.5,16.4,30.37,WNW,292,3.0,9.0,51,0.00,,,0.00,VWS V14.01,2013-04-02 15:17:00,
2013-04-02 10:22:00,32.4,16.3,30.37,West,263,4.0,9.0,51,0.00,,,0.00,VWS V14.01,2013-04-02 15:22:00,
2013-04-02 10:27:00,32.7,17.0,30.37,WNW,301,5.0,9.0,52,0.00,,,0.00,VWS V14.01,2013-04-02 15:27:00,
2013-04-02 10:32:00,32.9,16.3,30.37,WSW,247,0.0,7.0,50,0.00,,,0.00,VWS V14.01,2013-04-02 15:32:00,
2013-04-02 10:38:00,33.0,16.4,30.37,WNW,289,5.0,8.0,50,0.00,,,0.00,VWS V14.01,2013-04-02 15:38:00,
2013-04-02 10:43:00,33.2,16.1,30.37,West,268,4.0,8.0,49,0.00,,,0.00,VWS V14.01,2013-04-02 15:43:00,
2013-04-02 10:48:00,33.6,17.4,30.37,West,278,1.0,8.0,51,0.00,,,0.00,VWS V14.01,2013-04-02 15:48:00,
2013-04-02 10:53:00,33.9,16.3,30.37,WNW,285,5.0,8.0,48,0.00,,,0.00,VWS V14.01,2013-04-02 15:53:00,
2013-04-02 10:58:00,34.1,16.0,30.37,WSW,257,5.0,8.0,47,0.00,,,0.00,VWS V14.01,2013-04-02 15:58:00,
2013-04-02 11:03:00,34.1,15.5,30.37,NNW,337,0.0,7.0,46,0.00,,,0.00,VWS V14.01,2013-04-02 16:03:00,
2013-04-02 11:08:00,33.9,16.8,30.37,West,264,7.0,9.0,49,0.00,,,0.00,VWS V14.01,2013-04-02 16:08:00,
2013-04-02 11:13:00,34.4,17.7,30.37,NE,38,0.0,9.0,50,0.00,,,0.00,VWS V14.01,2013-04-02 16:13:00,
2013-04-02 11:18:00,34.8,16.1,30.37,WNW,295,1.0,9.0,46,0.00,,,0.00,VWS V14.01,2013-04-02 16:18:00,
2013-04-02 11:23:00,34.2,16.1,30.37,NNW,343,0.0,11.0,47,0.00,,,0.00,VWS V14.01,2013-04-02 16:23:00,
2013-04-02 11:28:00,34.5,17.3,30.37,NNW,346,0.0,11.0,49,0.00,,,0.00,VWS V14.01,2013-04-02 16:28:00,
2013-04-02 11:33:00,34.7,17.0,30.37,WNW,283,5.0,7.0,48,0.00,,,0.00,VWS V14.01,2013-04-02 16:33:00,
2013-04-02 11:38:00,34.8,17.1,30.37,WNW,287,11.0,12.0,48,0.00,,,0.00,VWS V14.01,2013-04-02 16:38:00,
2013-04-02 11:43:00,34.8,16.6,30.37,West,280,1.0,13.0,47,0.00,,,0.00,VWS V14.01,2013-04-02 16:43:00,
2013-04-02 11:49:00,35.0,16.3,30.37,North,354,1.0,13.0,46,0.00,,,0.00,VWS V14.01,2013-04-02 16:49:00,
2013-04-02 11:54:00,34.8,15.6,30.37,WNW,293,0.0,13.0,45,0.00,,,0.00,VWS V14.01,2013-04-02 16:54:00,
2013-04-02 11:59:00,34.9,15.7,30.37,WNW,282,5.0,13.0,45,0.00,,,0.00,VWS V14.01,2013-04-02 16:59:00,
2013-04-02 12:04:00,35.2,15.5,30.37,WSW,238,2.0,10.0,44,0.00,,,0.00,VWS V14.01,2013-04-02 17:04:00,
2013-04-02 12:09:00,35.5,15.8,30.37,West,264,3.0,10.0,44,0.00,,,0.00,VWS V14.01,2013-04-02 17:09:00,
2013-04-02 12:14:00,35.7,15.9,30.37,WNW,283,8.0,11.0,44,0.00,,,0.00,VWS V14.01,2013-04-02 17:14:00,
2013-04-02 12:19:00,35.5,15.2,30.37,NW,311,0.0,11.0,43,0.00,,,0.00,VWS V14.01,2013-04-02 17:19:00,
2013-04-02 12:24:00,35.2,15.5,30.37,WNW,282,11.0,11.0,44,0.00,,,0.00,VWS V14.01,2013-04-02 17:24:00,
2013-04-02 12:29:00,34.6,15.5,30.37,NW,308,0.0,11.0,45,0.00,,,0.00,VWS V14.01,2013-04-02 17:29:00,
2013-04-02 12:34:00,34.3,15.2,30.37,North,359,2.0,4.0,45,0.00,,,0.00,VWS V14.01,2013-04-02 17:34:00,
2013-04-02 12:39:00,34.0,15.9,30.36,West,274,8.0,9.0,47,0.00,,,0.00,VWS V14.01,2013-04-02 17:39:00,
2013-04-02 12:44:00,34.0,15.9,30.36,West,268,2.0,9.0,47,0.00,,,0.00,VWS V14.01,2013-04-02 17:44:00,
2013-04-02 12:49:00,34.3,17.1,30.36,WNW,282,8.0,9.0,49,0.00,,,0.00,VWS V14.01,2013-04-02 17:49:00,
2013-04-02 12:54:00,34.5,14.9,30.37,WNW,295,4.0,9.0,44,0.00,,,0.00,VWS V14.01,2013-04-02 17:54:00,
2013-04-02 13:00:00,34.3,15.7,30.36,West,260,0.0,9.0,46,0.00,,,0.00,VWS V14.01,2013-04-02 18:00:00,
2013-04-02 13:05:00,34.1,15.5,30.36,West,273,5.0,10.0,46,0.00,,,0.00,VWS V14.01,2013-04-02 18:05:00,
2013-04-02 13:10:00,34.1,14.5,30.36,West,278,7.0,14.0,44,0.00,,,0.00,VWS V14.01,2013-04-02 18:10:00,
2013-04-02 13:15:00,34.0,15.4,30.36,West,273,6.0,14.0,46,0.00,,,0.00,VWS V14.01,2013-04-02 18:15:00,
2013-04-02 13:20:00,34.4,15.8,30.36,West,281,2.0,14.0,46,0.00,,,0.00,VWS V14.01,2013-04-02 18:20:00,
2013-04-02 13:25:00,34.4,15.3,30.36,NNW,347,0.0,14.0,45,0.00,,,0.00,VWS V14.01,2013-04-02 18:25:00,
2013-04-02 13:30:00,34.4,15.3,30.36,WNW,287,0.0,14.0,45,0.00,,,0.00,VWS V14.01,2013-04-02 18:30:00,
2013-04-02 13:35:00,34.5,15.9,30.36,West,268,0.0,12.0,46,0.00,,,0.00,VWS V14.01,2013-04-02 18:35:00,
2013-04-02 13:40:00,34.2,15.1,30.36,West,277,0.0,12.0,45,0.00,,,0.00,VWS V14.01,2013-04-02 18:40:00,
2013-04-02 13:45:00,34.3,15.7,30.36,East,85,0.0,12.0,46,0.00,,,0.00,VWS V14.01,2013-04-02 18:45:00,
2013-04-02 13:50:00,34.6,15.5,30.36,North,9,0.0,12.0,45,0.00,,,0.00,VWS V14.01,2013-04-02 18:50:00,
2013-04-02 13:55:00,34.9,15.2,30.36,North,4,1.0,12.0,44,0.00,,,0.00,VWS V14.01,2013-04-02 18:55:00,
2013-04-02 14:00:00,35.0,15.3,30.36,NNW,343,0.0,12.0,44,0.00,,,0.00,VWS V14.01,2013-04-02 19:00:00,
2013-04-02 14:06:00,35.0,15.8,30.36,North,4,0.0,5.0,45,0.00,,,0.00,VWS V14.01,2013-04-02 19:06:00,
2013-04-02 14:11:00,35.2,16.0,30.36,NW,325,1.0,6.0,45,0.00,,,0.00,VWS V14.01,2013-04-02 19:11:00,
2013-04-02 14:17:00,35.1,15.9,30.36,WNW,287,4.0,7.0,45,0.00,,,0.00,VWS V14.01,2013-04-02 19:17:00,
2013-04-02 14:22:00,35.3,16.6,30.36,WNW,298,0.0,10.0,46,0.00,,,0.00,VWS V14.01,2013-04-02 19:22:00,
2013-04-02 14:27:00,35.7,17.0,30.36,North,350,0.0,10.0,46,0.00,,,0.00,VWS V14.01,2013-04-02 19:27:00,
2013-04-02 14:32:00,36.2,16.4,30.36,NW,306,0.0,1.0,44,0.00,,,0.00,VWS V14.01,2013-04-02 19:32:00,
2013-04-02 14:37:00,36.8,16.4,30.36,WNW,297,4.0,10.0,43,0.00,,,0.00,VWS V14.01,2013-04-02 19:37:00,
2013-04-02 14:42:00,37.2,16.8,30.36,NW,317,0.0,10.0,43,0.00,,,0.00,VWS V14.01,2013-04-02 19:42:00,
2013-04-02 14:48:00,37.3,16.3,30.36,WNW,283,0.0,10.0,42,0.00,,,0.00,VWS V14.01,2013-04-02 19:48:00,
2013-04-02 14:53:00,37.7,17.2,30.36,WNW,287,0.0,10.0,43,0.00,,,0.00,VWS V14.01,2013-04-02 19:53:00,
2013-04-02 14:58:00,38.1,17.6,30.36,WNW,285,6.0,12.0,43,0.00,,,0.00,VWS V14.01,2013-04-02 19:58:00,
2013-04-02 15:03:00,37.9,15.8,30.36,NW,309,0.0,6.0,40,0.00,,,0.00,VWS V14.01,2013-04-02 20:03:00,
2013-04-02 15:08:00,37.4,15.9,30.36,WNW,297,4.0,8.0,41,0.00,,,0.00,VWS V14.01,2013-04-02 20:08:00,
2013-04-02 15:13:00,37.1,16.1,30.36,WNW,295,0.0,8.0,42,0.00,,,0.00,VWS V14.01,2013-04-02 20:13:00,
2013-04-02 15:18:00,37.2,16.2,30.36,WNW,295,4.0,8.0,42,0.00,,,0.00,VWS V14.01,2013-04-02 20:18:00,
2013-04-02 15:24:00,37.5,16.0,30.35,WNW,284,0.0,8.0,41,0.00,,,0.00,VWS V14.01,2013-04-02 20:24:00,
2013-04-02 15:29:00,37.7,16.7,30.35,West,274,0.0,12.0,42,0.00,,,0.00,VWS V14.01,2013-04-02 20:29:00,
2013-04-02 15:34:00,37.8,15.7,30.35,East,85,0.0,5.0,40,0.00,,,0.00,VWS V14.01,2013-04-02 20:34:00,
2013-04-02 15:39:00,37.6,15.5,30.35,NW,311,1.0,5.0,40,0.00,,,0.00,VWS V14.01,2013-04-02 20:39:00,
2013-04-02 15:44:00,37.4,16.4,30.35,WNW,294,5.0,5.0,42,0.00,,,0.00,VWS V14.01,2013-04-02 20:44:00,
2013-04-02 15:49:00,37.4,15.9,30.35,West,266,4.0,8.0,41,0.00,,,0.00,VWS V14.01,2013-04-02 20:49:00,
2013-04-02 15:54:00,37.2,16.2,30.35,NW,308,7.0,8.0,42,0.00,,,0.00,VWS V14.01,2013-04-02 20:54:00,
2013-04-02 15:59:00,36.9,17.6,30.35,East,80,2.0,8.0,45,0.00,,,0.00,VWS V14.01,2013-04-02 20:59:00,
2013-04-02 16:05:00,36.5,16.1,30.35,NNW,345,0.0,7.0,43,0.00,,,0.00,VWS V14.01,2013-04-02 21:05:00,
2013-04-02 16:10:00,36.6,15.7,30.35,WNW,296,2.0,7.0,42,0.00,,,0.00,VWS V14.01,2013-04-02 21:10:00,
2013-04-02 16:15:00,36.8,15.3,30.35,WNW,288,0.0,7.0,41,0.00,,,0.00,VWS V14.01,2013-04-02 21:15:00,
2013-04-02 16:20:00,36.8,15.3,30.35,WNW,297,3.0,8.0,41,0.00,,,0.00,VWS V14.01,2013-04-02 21:20:00,
2013-04-02 16:25:00,36.9,16.0,30.35,North,354,3.0,8.0,42,0.00,,,0.00,VWS V14.01,2013-04-02 21:25:00,
2013-04-02 16:30:00,36.4,15.0,30.35,NW,306,2.0,8.0,41,0.00,,,0.00,VWS V14.01,2013-04-02 21:30:00,
2013-04-02 16:35:00,35.9,15.1,30.35,NE,41,3.0,5.0,42,0.00,,,0.00,VWS V14.01,2013-04-02 21:35:00,
2013-04-02 16:40:00,35.6,14.8,30.35,NE,46,1.0,5.0,42,0.00,,,0.00,VWS V14.01,2013-04-02 21:40:00,
2013-04-02 16:45:00,35.6,14.8,30.35,NNE,23,4.0,5.0,42,0.00,,,0.00,VWS V14.01,2013-04-02 21:45:00,
2013-04-02 16:50:00,35.6,14.8,30.35,NW,310,2.0,6.0,42,0.00,,,0.00,VWS V14.01,2013-04-02 21:50:00,
2013-04-02 16:55:00,35.9,15.1,30.35,NW,314,0.0,6.0,42,0.00,,,0.00,VWS V14.01,2013-04-02 21:55:00,
2013-04-02 17:00:00,36.1,14.7,30.35,WNW,294,4.0,6.0,41,0.00,,,0.00,VWS V14.01,2013-04-02 22:00:00,
2013-04-02 17:05:00,36.1,13.6,30.35,NNW,331,1.0,10.0,39,0.00,,,0.00,VWS V14.01,2013-04-02 22:05:00,
2013-04-02 17:11:00,36.0,14.0,30.35,NW,324,3.0,10.0,40,0.00,,,0.00,VWS V14.01,2013-04-02 22:11:00,
2013-04-02 17:16:00,36.0,13.5,30.35,NW,305,2.0,10.0,39,0.00,,,0.00,VWS V14.01,2013-04-02 22:16:00,
2013-04-02 17:22:00,36.0,12.9,30.35,NNW,327,0.0,10.0,38,0.00,,,0.00,VWS V14.01,2013-04-02 22:22:00,
2013-04-02 17:27:00,35.8,12.7,30.35,NNE,27,2.0,10.0,38,0.00,,,0.00,VWS V14.01,2013-04-02 22:27:00,
2013-04-02 17:32:00,35.7,12.0,30.35,ENE,70,2.0,4.0,37,0.00,,,0.00,VWS V14.01,2013-04-02 22:32:00,
2013-04-02 17:37:00,35.6,12.5,30.36,WNW,302,1.0,5.0,38,0.00,,,0.00,VWS V14.01,2013-04-02 22:37:00,
2013-04-02 17:42:00,35.5,12.4,30.36,NE,39,0.0,6.0,38,0.00,,,0.00,VWS V14.01,2013-04-02 22:42:00,
2013-04-02 17:47:00,35.2,10.9,30.36,NW,312,0.0,6.0,36,0.00,,,0.00,VWS V14.01,2013-04-02 22:47:00,
2013-04-02 17:52:00,35.0,10.8,30.36,NE,40,0.0,6.0,36,0.00,,,0.00,VWS V14.01,2013-04-02 22:52:00,
2013-04-02 17:57:00,34.8,11.2,30.36,NNE,23,2.0,6.0,37,0.00,,,0.00,VWS V14.01,2013-04-02 22:57:00,
2013-04-02 18:03:00,34.7,11.7,30.36,North,8,2.0,4.0,38,0.00,,,0.00,VWS V14.01,2013-04-02 23:03:00,
2013-04-02 18:08:00,34.7,11.7,30.36,WNW,289,1.0,9.0,38,0.00,,,0.00,VWS V14.01,2013-04-02 23:08:00,
2013-04-02 18:13:00,34.6,11.6,30.36,NNW,337,0.0,9.0,38,0.00,,,0.00,VWS V14.01,2013-04-02 23:13:00,
2013-04-02 18:18:00,34.6,11.6,30.36,ENE,66,3.0,9.0,38,0.00,,,0.00,VWS V14.01,2013-04-02 23:18:00,
2013-04-02 18:23:00,34.6,11.6,30.36,WNW,297,4.0,9.0,38,0.00,,,0.00,VWS V14.01,2013-04-02 23:23:00,
2013-04-02 18:28:00,34.6,11.0,30.36,WNW,301,1.0,9.0,37,0.00,,,0.00,VWS V14.01,2013-04-02 23:28:00,
2013-04-02 18:33:00,34.4,11.4,30.36,North,354,0.0,4.0,38,0.00,,,0.00,VWS V14.01,2013-04-02 23:33:00,
2013-04-02 18:38:00,34.3,11.4,30.36,NW,324,1.0,4.0,38,0.00,,,0.00,VWS V14.01,2013-04-02 23:38:00,
2013-04-02 18:43:00,34.3,11.9,30.36,NW,324,0.0,4.0,39,0.00,,,0.00,VWS V14.01,2013-04-02 23:43:00,
2013-04-02 18:48:00,34.3,11.9,30.37,NW,318,0.0,5.0,39,0.00,,,0.00,VWS V14.01,2013-04-02 23:48:00,
2013-04-02 18:54:00,34.1,11.8,30.37,NE,35,0.0,5.0,39,0.00,,,0.00,VWS V14.01,2013-04-02 23:54:00,
2013-04-02 18:59:00,33.9,12.7,30.37,NNW,341,2.0,5.0,41,0.00,,,0.00,VWS V14.01,2013-04-02 23:59:00,
2013-04-02 19:04:00,33.8,12.6,30.37,NNW,336,0.0,3.0,41,0.00,,,0.00,VWS V14.01,2013-04-03 00:04:00,
2013-04-02 19:09:00,33.8,12.6,30.37,NNW,335,0.0,3.0,41,0.00,,,0.00,VWS V14.01,2013-04-03 00:09:00,
2013-04-02 19:14:00,33.8,13.1,30.37,NNW,335,2.0,3.0,42,0.00,,,0.00,VWS V14.01,2013-04-03 00:14:00,
2013-04-02 19:19:00,33.7,12.5,30.37,NNW,335,1.0,3.0,41,0.00,,,0.00,VWS V14.01,2013-04-03 00:19:00,
2013-04-02 19:24:00,33.5,12.3,30.37,NNW,335,0.0,3.0,41,0.00,,,0.00,VWS V14.01,2013-04-03 00:24:00,
2013-04-02 19:29:00,33.3,12.7,30.37,NNW,335,0.0,3.0,42,0.00,,,0.00,VWS V14.01,2013-04-03 00:29:00,
2013-04-02 19:34:00,33.2,12.6,30.37,NNW,332,0.0,1.0,42,0.00,,,0.00,VWS V14.01,2013-04-03 00:34:00,
2013-04-02 19:39:00,33.0,13.0,30.37,NNW,332,0.0,4.0,43,0.00,,,0.00,VWS V14.01,2013-04-03 00:39:00,
2013-04-02 19:44:00,33.0,13.5,30.37,NNW,333,0.0,4.0,44,0.00,,,0.00,VWS V14.01,2013-04-03 00:44:00,
2013-04-02 19:50:00,33.0,13.5,30.37,NNW,333,0.0,4.0,44,0.00,,,0.00,VWS V14.01,2013-04-03 00:50:00,
2013-04-02 19:55:00,32.9,13.4,30.37,NNW,333,0.0,4.0,44,0.00,,,0.00,VWS V14.01,2013-04-03 00:55:00,
2013-04-02 20:00:00,32.7,13.2,30.37,NNW,333,0.0,4.0,44,0.00,,,0.00,VWS V14.01,2013-04-03 01:00:00,
2013-04-02 20:05:00,32.7,13.7,30.36,NNW,333,0.0,0.0,45,0.00,,,0.00,VWS V14.01,2013-04-03 01:05:00,
2013-04-02 20:10:00,32.6,13.6,30.36,NNW,333,0.0,0.0,45,0.00,,,0.00,VWS V14.01,2013-04-03 01:10:00,
2013-04-02 20:16:00,32.5,13.5,30.36,NNW,333,0.0,1.0,45,0.00,,,0.00,VWS V14.01,2013-04-03 01:16:00,
2013-04-02 20:21:00,32.5,14.0,30.37,NNW,333,0.0,1.0,46,0.00,,,0.00,VWS V14.01,2013-04-03 01:21:00,
2013-04-02 20:26:00,32.4,13.9,30.37,NNW,333,0.0,1.0,46,0.00,,,0.00,VWS V14.01,2013-04-03 01:26:00,
2013-04-02 20:32:00,32.4,14.4,30.37,NNW,333,0.0,0.0,47,0.00,,,0.00,VWS V14.01,2013-04-03 01:32:00,
2013-04-02 20:37:00,32.4,13.9,30.37,NNW,333,0.0,0.0,46,0.00,,,0.00,VWS V14.01,2013-04-03 01:37:00,
2013-04-02 20:42:00,32.4,13.9,30.37,NNW,333,0.0,0.0,46,0.00,,,0.00,VWS V14.01,2013-04-03 01:42:00,
2013-04-02 20:47:00,32.4,13.9,30.37,NNW,333,0.0,0.0,46,0.00,,,0.00,VWS V14.01,2013-04-03 01:47:00,
2013-04-02 20:53:00,32.5,14.5,30.37,NNW,333,0.0,0.0,47,0.00,,,0.00,VWS V14.01,2013-04-03 01:53:00,
2013-04-02 20:58:00,32.4,14.4,30.38,NNW,333,0.0,0.0,47,0.00,,,0.00,VWS V14.01,2013-04-03 01:58:00,
2013-04-02 21:03:00,32.4,13.9,30.38,NNW,332,0.0,0.0,46,0.00,,,0.00,VWS V14.01,2013-04-03 02:03:00,
2013-04-02 21:08:00,32.3,14.3,30.38,NNW,333,0.0,0.0,47,0.00,,,0.00,VWS V14.01,2013-04-03 02:08:00,
2013-04-02 21:13:00,32.1,13.7,30.38,NNW,333,0.0,0.0,46,0.00,,,0.00,VWS V14.01,2013-04-03 02:13:00,
2013-04-02 21:18:00,32.0,14.1,30.38,NNW,333,0.0,0.0,47,0.00,,,0.00,VWS V14.01,2013-04-03 02:18:00,
2013-04-02 21:23:00,32.0,14.1,30.38,NNW,333,0.0,0.0,47,0.00,,,0.00,VWS V14.01,2013-04-03 02:23:00,
2013-04-02 21:28:00,32.0,14.1,30.38,NNW,333,0.0,0.0,47,0.00,,,0.00,VWS V14.01,2013-04-03 02:28:00,
2013-04-02 21:34:00,32.0,14.1,30.39,NNW,333,0.0,0.0,47,0.00,,,0.00,VWS V14.01,2013-04-03 02:34:00,
2013-04-02 21:39:00,32.0,14.1,30.39,NNW,332,0.0,0.0,47,0.00,,,0.00,VWS V14.01,2013-04-03 02:39:00,
2013-04-02 21:44:00,31.9,14.4,30.39,NNW,333,0.0,0.0,48,0.00,,,0.00,VWS V14.01,2013-04-03 02:44:00,
2013-04-02 21:49:00,31.6,14.6,30.39,NNW,333,0.0,0.0,49,0.00,,,0.00,VWS V14.01,2013-04-03 02:49:00,
2013-04-02 21:54:00,31.5,14.6,30.39,NNW,333,0.0,0.0,49,0.00,,,0.00,VWS V14.01,2013-04-03 02:54:00,
2013-04-02 21:59:00,31.5,14.6,30.39,NNW,332,0.0,0.0,49,0.00,,,0.00,VWS V14.01,2013-04-03 02:59:00,
2013-04-02 22:05:00,31.4,14.5,30.39,NNW,333,0.0,0.0,49,0.00,,,0.00,VWS V14.01,2013-04-03 03:05:00,
2013-04-02 22:10:00,31.2,15.2,30.39,NNW,333,0.0,0.0,51,0.00,,,0.00,VWS V14.01,2013-04-03 03:10:00,
2013-04-02 22:15:00,30.8,14.8,30.39,NNW,333,0.0,0.0,51,0.00,,,0.00,VWS V14.01,2013-04-03 03:15:00,
2013-04-02 22:20:00,30.7,16.0,30.39,NNW,333,0.0,0.0,54,0.00,,,0.00,VWS V14.01,2013-04-03 03:20:00,
2013-04-02 22:25:00,30.6,15.1,30.39,NNW,333,0.0,0.0,52,0.00,,,0.00,VWS V14.01,2013-04-03 03:25:00,
2013-04-02 22:30:00,30.5,15.0,30.39,NNW,332,0.0,0.0,52,0.00,,,0.00,VWS V14.01,2013-04-03 03:30:00,
2013-04-02 22:37:00,30.4,14.9,30.39,NNW,333,0.0,0.0,52,0.00,,,0.00,VWS V14.01,2013-04-03 03:37:00,
2013-04-02 22:42:00,30.3,14.8,30.39,NNW,333,0.0,0.0,52,0.00,,,0.00,VWS V14.01,2013-04-03 03:42:00,
2013-04-02 22:48:00,30.2,15.1,30.39,NNW,333,0.0,0.0,53,0.00,,,0.00,VWS V14.01,2013-04-03 03:48:00,
2013-04-02 22:53:00,30.0,15.0,30.39,NNW,333,0.0,0.0,53,0.00,,,0.00,VWS V14.01,2013-04-03 03:53:00,
2013-04-02 22:58:00,29.9,14.9,30.39,NNW,332,0.0,0.0,53,0.00,,,0.00,VWS V14.01,2013-04-03 03:58:00,
2013-04-02 23:00:00,29.9,14.9,30.39,NNW,332,0.0,0.0,53,0.00,,,0.00,VWS V14.01,2013-04-03 04:00:00,
2013-04-02 23:01:00,29.9,14.9,30.39,NNW,333,0.0,0.0,53,0.00,,,0.00,VWS V14.01,2013-04-03 04:01:00,
2013-04-02 23:04:00,29.8,14.8,30.40,NNW,332,0.0,0.0,53,0.00,,,0.00,VWS V14.01,2013-04-03 04:04:00,
2013-04-02 23:09:00,29.8,15.2,30.40,NNW,332,0.0,0.0,54,0.00,,,0.00,VWS V14.01,2013-04-03 04:09:00,
2013-04-02 23:14:00,29.9,15.3,30.39,NNW,333,0.0,0.0,54,0.00,,,0.00,VWS V14.01,2013-04-03 04:14:00,
2013-04-02 23:19:00,30.0,15.4,30.39,NNW,333,0.0,0.0,54,0.00,,,0.00,VWS V14.01,2013-04-03 04:19:00,
2013-04-02 23:24:00,30.0,16.2,30.39,NNW,332,0.0,0.0,56,0.00,,,0.00,VWS V14.01,2013-04-03 04:24:00,
2013-04-02 23:29:00,30.0,15.4,30.39,NNW,333,0.0,0.0,54,0.00,,,0.00,VWS V14.01,2013-04-03 04:29:00,
2013-04-02 23:35:00,29.9,15.7,30.39,NNW,333,0.0,0.0,55,0.00,,,0.00,VWS V14.01,2013-04-03 04:35:00,
2013-04-02 23:40:00,29.9,15.7,30.39,NNW,333,0.0,0.0,55,0.00,,,0.00,VWS V14.01,2013-04-03 04:40:00,
2013-04-02 23:45:00,29.9,15.7,30.39,NNW,333,0.0,0.0,55,0.00,,,0.00,VWS V14.01,2013-04-03 04:45:00,
2013-04-02 23:50:00,29.8,15.6,30.39,NNW,333,0.0,0.0,55,0.00,,,0.00,VWS V14.01,2013-04-03 04:50:00,
2013-04-02 23:55:00,29.7,16.4,30.39,NNW,333,0.0,0.0,57,0.00,,,0.00,VWS V14.01,2013-04-03 04:55:00,